RH
9 9 8 7 6 6 5 5 4 4 4 4 4 4 4 4 4 4 3 3 3 3 3 3 3 3 3 3 3 3 3 2 3 3 2 3 3 3 3 3 3 3 3 5 5 5 5 5 5 5 6 6 6 6 5 5 5 5 5 5 5 6 6
9 8 7 6 6 5 5 4 4 4 4 4 4 4 4 4 4 4 4 4 3 3 3 3 3 3 3 3 3 3 3 2 3 3 2 3 3 3 3 3 3 3 3 4 5 5 5 5 5 5 5 5 6 6 5 5 5 4 5 5 5 5 5
8 7 6 6 5 5 5 4 4 4 4 4 4 4 4 4 4 4 4 4 4 4 4 3 3 3 3 3 3 3 3 3 3 2 2 3 3 3 3 3 3 3 3 3 4 5 5 4 5 5 5 5 5 5 5 5 5 4 4 4 4 4 4
7 6 6 5 5 5 5 4 5 4 4 4 4 4 5 4 4 4 4 4 4 4 4 3 3 3 3 3 3 3 3 3 3 3 3 3 3 3 3 3 3 2 3 3 4 4 4 4 4 5 5 4 4 4 5 5 5 5 5 4 4 4 3
7 6 6 6 5 5 5 5 5 5 5 5 5 5 5 4 4 4 4 4 4 4 4 4 3 3 3 3 3 3 3 3 3 3 3 3 3 3 3 3 3 3 3 3 4 4 4 4 4 4 4 4 4 4 4 4 4 4 5 4 4 4 3
6 6 6 6 6 6 5 5 5 5 5 5 5 5 4 4 4 4 4 4 4 4 4 4 4 3 3 3 3 3 3 3 3 3 3 3 3 3 3 3 3 3 3 4 4 4 5 4 4 4 4 4 4 4 4 4 4 3 4 4 4 4 4
6 6 6 6 6 6 5 5 5 5 5 5 5 5 5 5 4 4 4 4 4 4 4 4 4 4 3 4 3 3 3 3 3 3 3 3 3 3 3 3 3 4 3 4 4 4 4 4 4 3 4 4 4 4 4 4 4 3 3 3 3 4 4
6 6 6 6 6 6 6 6 5 5 5 5 5 5 5 5 5 5 4 4 4 4 4 4 4 4 3 4 3 3 3 3 3 3 3 3 4 3 3 3 3 3 3 3 3 4 4 4 3 3 4 4 4 3 3 3 3 3 3 3 3 3 3
7 6 6 7 6 6 6 6 6 6 6 6 5 5 5 5 5 5 4 4 4 4 4 4 4 4 3 3 3 3 3 3 3 3 3 3 3 3 3 3 3 3 3 3 3 3 3 3 3 3 3 4 4 3 3 3 3 3 3 3 3 3 3
7 6 6 7 6 6 6 6 6 6 6 6 5 5 6 5 5 5 4 4 4 4 4 4 4 4 4 3 4 3 3 4 3 3 4 4 4 3 3 3 3 3 3 3 3 3 3 3 3 3 3 4 4 3 3 3 3 3 3 3 3 3 3
7 6 6 7 7 6 6 6 6 6 6 6 5 5 6 6 5 5 4 4 5 4 4 4 4 4 4 4 4 4 4 4 4 4 4 4 4 3 3 3 3 3 3 3 3 3 3 3 3 3 3 3 4 3 3 3 3 3 3 3 3 3 3
7 6 6 7 7 6 6 6 6 6 6 6 6 6 6 6 5 5 5 5 5 4 4 4 4 4 4 4 4 4 4 4 4 4 4 4 4 3 3 3 3 3 3 3 3 3 4 4 3 3 3 3 3 3 3 3 3 3 3 3 3 3 3
7 7 6 7 7 7 6 6 6 6 6 6 6 6 6 6 6 5 5 5 5 5 5 4 4 4 4 4 4 4 4 4 4 4 4 3 4 3 3 3 3 3 3 3 3 3 3 3 3 3 3 3 3 3 2 2 3 3 3 3 3 3 3
7 7 6 7 7 7 6 6 6 6 6 6 6 6 7 6 6 5 5 5 5 5 5 5 5 5 5 5 4 4 4 5 4 4 4 3 3 3 3 3 3 3 3 3 3 3 3 3 3 3 3 3 3 3 3 2 2 2 3 2 3 3 3
7 7 6 7 7 7 7 6 5 6 6 6 6 7 7 7 6 6 5 5 6 5 5 5 5 5 5 5 5 5 5 5 4 4 4 3 3 3 3 3 3 3 3 3 3 3 3 3 3 3 3 3 3 3 3 3 3 3 3 2 3 3 3
8 7 6 7 7 7 6 6 6 6 6 6 6 7 7 7 6 6 6 6 6 5 5 5 5 6 6 5 5 5 5 5 5 4 4 4 3 3 3 3 3 3 3 3 3 4 4 3 3 3 3 3 3 3 3 3 3 3 3 3 3 3 3
8 7 6 6 6 6 6 6 6 6 6 6 7 7 8 7 7 6 7 7 6 6 5 5 5 5 6 5 5 5 5 5 5 4 4 4 4 3 3 3 3 3 3 3 3 3 4 4 4 3 3 3 3 3 3 3 3 3 3 3 3 3 3
8 7 6 6 6 6 6 6 6 6 7 7 7 7 8 8 7 7 8 8 7 6 6 5 5 5 5 5 5 5 5 5 5 5 5 4 4 4 3 3 3 3 3 3 3 3 4 4 4 3 3 3 3 3 3 3 3 3 3 3 3 3 3
8 8 6 6 6 6 6 6 6 6 7 7 7 7 8 8 8 8 10 10 8 7 6 6 5 5 5 5 5 5 6 5 5 5 5 5 5 4 4 3 3 3 3 4 4 4 4 4 4 4 3 3 3 2 2 3 3 3 3 3 3 3 3
8 8 6 6 6 6 6 6 6 6 7 7 7 7 8 9 9 10 12 12 10 8 7 6 5 5 5 5 5 5 6 6 5 5 5 5 5 4 4 4 3 3 4 4 4 4 4 4 4 4 3 3 3 3 2 3 3 3 3 3 3 3 3
8 8 6 5 6 6 6 6 7 6 7 7 7 7 8 9 9 11 14 14 11 9 9 7 6 6 5 5 5 5 6 6 5 5 5 5 5 5 4 4 4 4 4 4 4 4 4 4 4 3 4 3 3 3 3 2 3 3 3 3 3 3 3
8 7 6 6 6 6 6 6 7 7 7 7 7 7 7 9 10 13 17 17 13 10 10 9 7 6 6 5 5 5 5 6 6 5 5 5 5 5 5 4 4 4 4 4 4 4 4 4 4 3 3 3 3 3 3 2 3 3 3 3 3 3 3
8 7 6 6 6 6 6 6 7 7 7 7 8 7 8 9 11 15 18 18 15 12 12 11 9 8 6 6 5 5 5 6 6 5 5 5 5 5 5 5 4 4 4 4 4 4 4 4 4 4 3 3 3 3 3 3 3 2 3 3 3 3 3
8 7 7 6 6 6 6 6 7 7 7 8 8 8 8 9 11 15 18 19 17 15 15 13 11 9 7 6 6 5 5 6 6 6 5 5 6 5 5 5 4 4 4 4 4 4 4 4 4 4 4 3 3 3 3 3 3 2 3 3 3 4 3
8 7 7 6 6 6 6 6 7 7 8 8 8 9 9 10 11 14 17 18 18 17 16 14 12 11 9 8 7 7 6 6 6 7 6 6 6 6 5 5 5 4 4 4 4 4 4 4 4 4 4 4 3 3 3 3 3 3 3 3 3 4 4
8 7 7 6 6 6 6 6 7 7 8 9 10 10 11 11 12 14 16 16 16 15 15 14 13 13 12 10 8 8 7 7 6 6 7 6 6 6 5 5 5 5 4 4 4 4 4 4 4 4 4 4 4 3 4 3 3 3 3 3 3 3 4
8 7 7 6 6 6 6 6 7 8 9 11 11 12 13 13 14 15 15 15 15 15 14 12 12 13 12 10 9 8 8 8 7 6 7 7 6 6 5 5 5 5 5 5 4 4 4 4 4 4 4 4 4 4 4 3 3 3 3 3 3 3 4
8 7 7 6 6 7 6 7 8 9 10 12 13 14 14 14 14 15 15 14 14 14 13 11 11 11 10 9 8 7 7 8 8 8 7 7 7 6 6 5 5 5 5 5 5 5 5 4 4 4 4 4 4 4 4 4 3 3 3 3 3 4 3
8 7 7 7 7 7 7 8 9 10 12 14 15 15 15 14 14 15 15 13 12 12 10 8 8 7 7 6 6 5 6 6 7 7 7 6 6 6 6 5 5 5 5 5 5 5 5 5 5 5 4 4 4 4 4 4 3 3 3 3 3 4 3
8 7 7 7 7 8 9 9 10 12 14 16 16 16 15 14 14 14 13 11 10 9 8 7 6 6 6 6 5 5 5 6 6 7 7 6 6 6 5 5 5 5 5 6 5 5 5 5 5 5 4 4 4 4 4 4 4 3 4 3 3 4 3
9 8 8 9 9 9 10 11 12 13 15 16 17 16 15 13 13 14 13 11 11 10 9 8 8 7 7 7 6 6 6 6 6 7 7 7 7 6 6 5 6 6 5 5 6 5 5 5 5 5 5 4 5 5 4 4 4 4 4 4 3 3 4
9 10 10 11 12 12 12 13 14 14 14 15 15 15 14 12 12 14 15 14 13 12 11 9 8 8 8 8 7 7 6 6 7 7 8 8 7 7 6 5 5 6 6 6 6 6 5 5 5 5 5 5 4 5 4 4 4 4 4 4 4 3 3
10 12 13 13 14 15 14 14 14 14 14 14 15 15 15 14 13 14 16 16 15 14 12 11 9 9 9 8 8 7 7 6 7 7 7 8 7 7 7 6 5 6 6 6 6 6 5 6 5 5 5 5 4 5 5 4 4 4 4 4 4 4 4
11 13 16 16 16 16 16 15 14 14 14 15 15 16 17 16 15 15 15 16 16 15 13 11 10 9 9 9 8 8 7 7 7 7 7 8 8 7 7 6 6 6 6 6 6 6 5 5 5 5 5 5 4 4 4 4 4 4 4 4 4 4 4
11 13 15 16 17 16 16 16 16 16 16 16 17 19 20 19 18 18 17 16 17 16 14 12 11 10 9 9 8 8 8 7 8 8 8 8 8 7 7 7 6 6 6 6 6 6 6 5 5 5 5 5 5 5 4 4 4 4 4 4 4 4 4
12 13 15 15 15 15 15 16 17 18 18 19 20 21 21 21 20 19 17 17 17 17 15 14 12 11 10 9 8 8 7 7 8 8 8 8 8 7 7 7 6 6 6 6 6 6 6 6 5 5 5 5 5 5 4 4 4 4 4 4 4 4 4
Wind_Speed
86 87 89 90 91 91 91 91 90 90 90 89 89 89 89 89 89 90 91 91 92 92 93 93 94 96 97 98 98 100 102 103 105 106 108 110 111 113 114 115 115 115 115 120 128 131 133 136 139 141 145 148 149 151 151 151 151 151 151 151 151 152 153
84 85 86 86 86 87 86 86 85 85 85 85 85 85 85 86 86 87 88 89 89 90 91 91 93 94 95 95 96 97 98 99 100 101 102 103 105 106 108 110 110 111 111 114 120 125 127 131 134 136 140 144 146 148 150 150 150 150 151 151 150 149 150
83 83 83 83 83 83 83 82 81 81 80 80 80 81 82 83 83 84 85 86 87 88 88 89 90 92 92 93 93 94 95 95 96 96 97 98 99 101 102 105 106 106 106 108 112 118 122 125 129 132 135 139 142 144 147 149 149 149 149 149 149 148 147
82 82 81 81 81 80 80 79 78 77 77 76 77 77 79 79 80 81 82 83 84 85 85 86 87 89 89 89 89 90 91 91 91 92 93 94 96 97 98 100 101 101 102 103 105 111 116 119 123 127 130 134 137 140 143 145 147 148 148 147 147 146 145
81 80 80 79 79 78 78 77 76 75 74 73 74 74 75 76 77 78 79 80 81 82 83 83 84 85 85 85 85 86 87 87 88 88 89 90 92 93 94 95 96 97 98 99 101 104 110 113 117 121 125 129 132 135 138 140 142 144 145 145 145 144 144
81 79 78 78 77 76 76 75 74 73 72 71 72 72 73 73 75 76 76 77 78 79 80 81 81 82 82 82 83 84 84 85 85 85 86 87 88 88 89 90 92 94 95 96 98 100 104 108 112 116 120 124 127 130 132 135 136 139 141 142 142 142 142
80 78 77 76 75 75 74 73 72 71 70 70 70 70 70 71 72 73 74 75 75 76 77 77 78 78 79 80 80 81 82 82 82 82 82 83 84 84 85 87 89 91 93 94 96 98 101 104 108 112 115 120 123 124 127 130 132 133 135 137 138 139 139
80 77 75 75 74 73 72 71 70 69 69 69 69 69 69 69 70 71 72 72 73 73 74 74 75 76 76 77 77 77 78 78 78 78 79 80 81 82 83 85 87 90 92 93 94 96 98 101 104 108 112 116 119 120 122 125 127 128 130 132 134 134 135
80 76 74 74 73 72 71 70 68 68 68 68 68 67 67 68 69 69 70 70 70 70 71 72 73 73 74 74 74 74 74 74 75 75 76 78 79 80 82 84 86 88 90 92 92 93 95 96 99 103 108 112 114 116 118 121 123 123 125 128 129 129 131
79 76 73 73 73 71 70 69 67 66 67 67 66 66 66 67 68 67 67 67 67 68 69 70 70 70 71 70 70 70 71 71 72 72 73 75 78 79 80 81 83 85 87 88 88 89 90 92 94 100 105 108 111 113 115 117 118 118 120 123 124 125 127
79 76 72 72 72 71 70 68 66 65 66 66 65 64 65 67 67 66 65 64 65 65 66 67 67 67 67 67 67 68 69 69 69 70 71 73 75 77 78 79 80 82 83 83 83 85 87 89 92 97 102 105 108 111 112 112 113 114 116 119 121 121 124
79 76 72 71 71 70 69 67 65 64 65 65 64 63 63 66 67 65 64 63 63 63 64 64 64 64 64 64 65 66 66 66 67 68 69 71 72 74 75 77 77 78 79 79 80 81 84 88 90 94 99 102 105 107 108 108 109 111 112 115 116 118 120
79 76 72 70 70 69 68 66 64 63 64 64 63 62 62 65 65 64 63 62 61 62 62 62 62 62 62 62 63 63 63 63 65 67 68 69 70 70 72 73 74 74 75 77 77 78 81 86 89 91 96 100 102 102 103 104 106 108 109 110 111 113 115
78 76 72 70 69 68 67 65 63 62 63 63 61 61 62 64 64 62 61 61 61 61 60 60 59 59 60 61 61 60 59 61 63 65 66 67 66 66 67 69 70 71 72 72 74 75 78 82 85 86 91 96 97 97 99 100 102 103 104 104 106 107 110
78 76 72 70 68 67 66 64 62 61 62 61 60 59 61 63 63 61 60 60 60 59 59 58 57 57 58 60 59 58 57 59 61 63 64 64 63 63 64 66 67 67 67 68 70 72 75 79 80 82 86 90 93 94 95 97 98 98 99 100 101 103 106
78 76 72 70 67 66 65 64 61 59 60 60 58 58 60 62 62 60 59 59 59 58 57 55 55 55 56 57 56 56 56 57 59 61 62 62 61 62 62 63 63 63 64 66 67 69 72 75 77 79 81 85 89 91 92 93 93 94 96 97 98 100 102
77 76 72 69 67 65 65 64 60 58 59 59 57 57 58 60 60 59 58 58 59 58 56 54 53 53 54 54 53 53 54 56 57 58 60 60 61 61 61 60 60 60 62 63 64 65 68 71 75 77 78 82 85 87 87 87 87 90 93 94 95 96 99
76 75 72 69 67 65 64 63 60 57 56 57 56 55 56 58 59 58 57 58 59 57 55 53 52 51 51 51 50 50 51 55 56 55 57 59 60 60 60 59 59 58 59 59 60 63 65 68 71 75 77 79 82 83 82 81 82 86 89 89 91 94 97
75 75 72 68 66 64 62 62 60 56 55 55 55 53 54 55 56 56 57 58 58 57 54 53 51 50 49 48 48 47 49 53 54 53 55 57 58 59 60 60 58 57 56 57 59 61 63 65 67 70 73 77 79 79 78 76 78 82 84 84 87 90 93
73 73 72 68 65 63 61 60 59 57 54 54 54 52 51 53 54 54 55 58 58 56 54 53 51 49 48 47 46 45 46 51 54 52 53 55 56 57 59 59 58 57 56 56 57 58 60 62 63 65 69 73 76 77 75 73 74 77 79 81 84 87 90
72 72 71 67 64 62 60 58 58 56 54 53 53 51 49 50 51 52 53 56 57 55 54 53 51 50 48 47 46 44 44 48 53 52 51 53 55 55 57 57 57 56 55 55 56 56 57 59 61 62 65 68 72 73 72 71 71 73 75 77 81 85 87
71 71 70 67 63 61 59 57 56 55 54 52 51 50 48 48 48 49 51 54 56 54 53 53 52 51 49 47 46 44 42 45 50 51 49 50 53 54 54 55 55 54 54 54 54 55 55 56 58 60 62 65 68 69 69 68 68 69 71 74 78 82 84
71 70 70 67 63 60 58 56 55 53 53 52 50 49 48 46 46 46 48 52 54 53 52 52 53 52 51 48 45 43 41 42 47 50 48 48 50 51 52 53 53 53 52 52 52 53 54 54 55 58 60 62 64 65 65 65 65 66 67 70 74 79 82
70 69 69 67 63 59 57 55 53 52 50 50 50 49 47 46 44 44 46 49 51 51 51 52 52 51 51 48 45 44 43 42 44 48 49 47 48 49 50 51 51 51 51 50 50 51 52 52 53 55 58 59 61 62 61 61 62 63 64 66 70 74 79
69 68 67 66 63 60 56 54 52 50 49 48 49 49 47 45 43 43 44 46 48 48 49 50 50 49 50 49 46 45 44 43 42 44 47 47 47 47 48 48 49 49 49 48 48 49 49 50 51 53 55 56 58 59 58 58 59 60 62 63 65 69 74
68 67 66 65 62 59 56 53 50 49 47 46 47 48 47 45 43 42 43 45 45 46 47 47 47 47 47 48 46 44 44 44 43 42 44 45 46 46 46 46 47 48 47 47 46 47 47 48 49 51 52 54 55 56 56 56 57 58 59 60 62 66 71
67 66 65 63 61 58 55 52 49 48 46 46 46 47 46 45 43 42 43 44 44 45 46 45 44 44 45 45 44 42 41 42 43 42 42 43 44 44 44 44 44 45 46 45 45 45 45 46 47 49 50 51 53 53 54 54 55 56 57 58 60 63 67
66 65 64 62 60 57 55 52 49 47 46 45 45 46 45 44 43 43 44 44 44 44 45 43 42 41 41 41 40 38 37 37 39 41 41 41 42 42 42 42 42 42 43 43 43 43 44 45 46 47 48 49 50 51 52 53 54 55 55 56 58 61 63
65 64 62 61 58 55 53 52 49 47 45 45 45 45 45 44 43 43 45 45 44 44 43 42 40 39 38 37 37 36 35 35 36 38 39 39 40 40 40 40 40 40 40 41 42 42 42 43 44 45 46 47 48 49 50 51 53 53 53 54 56 57 59
63 63 61 60 57 54 52 50 49 47 45 45 45 45 45 45 44 44 46 46 45 44 44 42 41 40 39 39 38 37 36 36 36 37 38 38 38 39 39 38 38 38 38 38 39 41 41 42 42 43 45 46 47 48 49 50 51 52 52 52 53 54 56
60 60 59 58 57 55 52 50 49 47 46 45 45 45 45 44 43 44 47 47 46 46 46 45 43 42 41 41 40 39 38 37 37 37 38 38 38 39 38 37 36 36 37 37 37 38 39 40 41 42 43 44 45 46 47 48 49 50 51 51 52 52 52
58 59 57 55 53 53 52 50 49 48 47 47 46 46 46 45 43 44 46 48 47 48 48 46 44 43 42 42 41 41 40 38 37 37 38 38 38 38 38 37 35 35 36 36 36 37 37 38 39 40 41 43 44 45 46 47 48 48 49 50 50 50 50
54 56 57 55 52 51 50 50 49 48 48 48 48 48 48 46 44 43 45 47 47 48 48 47 46 44 43 42 42 41 40 39 38 37 37 37 37 37 37 37 35 34 34 35 35 35 36 36 37 38 40 41 42 43 44 45 46 47 47 48 48 49 49
50 51 53 54 53 51 49 49 49 48 48 48 48 48 49 48 47 45 45 46 47 48 48 47 46 45 43 43 42 42 41 40 39 38 37 37 37 36 36 37 35 33 33 33 34 34 35 35 36 37 38 39 40 41 42 43 44 45 46 46 47 47 47
51 49 49 50 51 50 49 48 47 48 48 48 48 49 50 50 49 47 47 47 47 48 49 48 47 45 44 43 42 41 40 39 38 38 38 37 36 36 36 35 35 33 32 32 33 33 34 34 34 35 36 37 38 39 40 41 42 43 44 44 45 45 46
54 51 49 48 49 49 48 47 46 46 47 47 47 48 48 49 49 48 48 47 46 47 48 48 47 46 45 44 42 41 39 37 36 37 37 36 36 35 35 34 34 33 32 31 32 32 33 33 33 34 35 36 37 38 39 40 40 41 42 42 43 44 44
Wind_Direction
292 291 290 290 289 288 288 287 286 285 284 283 282 281 280 278 277 276 274 273 272 270 269 268 266 265 264 262 261 260 259 258 257 256 255 255 254 254 253 252 251 249 247 247 248 249 248 248 248 248 249 250 250 250 250 249 249 249 248 246 245 244 244
294 293 292 291 291 290 289 287 286 285 284 283 282 281 280 279 277 276 274 273 272 271 270 268 267 266 265 263 262 261 260 259 258 257 257 256 255 255 254 253 251 250 248 247 247 248 248 248 248 248 248 248 249 249 250 249 249 248 248 247 246 245 244
297 296 295 294 293 292 290 289 288 287 286 284 283 282 280 279 277 276 275 274 273 271 270 269 268 267 266 265 264 263 262 261 260 259 258 257 256 255 254 253 252 250 249 247 247 248 248 248 248 248 248 248 248 248 248 249 249 248 248 248 247 246 245
299 299 298 297 295 294 293 291 290 289 287 286 284 282 281 279 278 277 275 274 273 272 271 270 269 268 267 267 266 265 264 263 262 261 260 258 257 256 254 254 253 251 249 247 247 247 248 247 247 248 248 248 248 248 248 248 248 248 248 248 248 247 246
302 301 300 299 298 296 295 293 292 291 289 288 285 283 281 280 279 277 276 275 274 273 272 271 270 269 269 268 268 267 266 265 263 262 260 259 258 257 256 255 254 252 250 248 247 247 247 247 247 247 247 247 248 248 248 248 248 248 248 248 248 248 247
304 303 303 301 299 298 296 295 294 293 291 289 287 285 283 281 280 278 277 275 274 274 273 272 271 271 270 269 268 267 266 264 263 262 261 260 259 258 257 256 254 253 251 249 247 246 246 246 246 246 246 246 246 247 248 248 248 248 248 247 247 247 247
306 305 304 302 301 299 298 297 296 295 293 290 288 286 285 283 281 279 278 277 276 275 274 273 272 271 270 269 268 267 266 265 264 264 263 261 260 259 257 255 254 252 251 249 247 246 245 245 245 245 245 246 246 245 246 247 247 247 247 247 247 246 246
307 307 306 304 302 301 299 298 297 296 294 292 290 288 286 284 282 281 279 278 277 277 276 274 273 272 271 270 269 268 267 266 265 264 263 262 260 258 256 254 253 251 250 248 247 245 244 244 244 245 245 245 246 245 245 246 246 247 247 247 247 246 245
308 308 307 305 303 302 301 299 298 297 295 293 291 290 288 286 284 282 281 280 279 278 277 276 274 273 272 271 270 269 268 267 265 264 263 261 259 257 255 254 253 252 251 249 248 247 246 244 244 244 245 245 245 245 245 245 245 245 246 247 247 246 245
309 309 308 307 305 304 302 301 299 298 296 294 293 292 290 288 286 284 283 282 281 280 279 277 276 275 274 273 272 271 269 267 265 263 262 260 259 257 256 254 253 252 251 251 250 249 247 246 245 244 244 245 245 245 244 244 244 244 245 246 246 246 246
310 310 309 308 306 305 303 302 301 299 297 295 294 293 292 290 288 286 285 284 283 281 280 278 277 276 275 274 273 271 269 268 266 264 262 261 260 258 257 255 254 253 252 251 250 249 248 246 245 244 244 244 244 245 244 244 244 244 244 244 245 245 245
311 311 310 308 307 305 304 303 302 300 298 296 296 295 293 292 290 289 288 286 284 283 281 280 279 278 276 275 273 271 270 269 267 265 263 262 261 259 258 257 256 254 253 252 250 248 248 247 245 245 245 245 245 245 244 244 244 244 243 243 244 244 245
312 311 310 309 308 306 305 303 303 301 299 298 297 296 295 293 291 291 290 288 287 285 283 282 281 280 279 276 274 272 272 271 269 267 265 263 261 261 260 259 258 256 255 253 251 249 248 247 246 245 246 246 246 245 245 245 244 244 244 244 244 244 245
313 311 311 310 308 307 305 304 304 302 300 298 298 297 295 293 292 292 291 290 288 286 285 284 283 283 281 279 277 276 274 273 271 269 267 265 263 262 261 260 259 257 256 255 254 252 250 248 247 246 246 247 247 246 246 246 245 245 245 244 244 244 245
313 312 311 310 309 308 306 305 305 303 301 299 299 298 296 294 293 293 292 290 289 287 286 286 285 284 283 281 280 279 277 276 274 272 270 268 266 264 262 260 258 258 257 255 254 253 252 250 247 246 246 247 247 246 246 246 246 245 245 244 244 244 244
313 312 312 311 310 309 307 306 306 304 302 300 300 298 297 295 294 293 292 291 290 288 288 287 287 285 283 282 281 280 278 276 274 273 272 271 269 266 264 261 260 258 256 254 253 252 252 252 250 247 245 246 246 246 245 245 245 245 245 244 243 243 243
314 312 312 312 311 310 308 307 306 305 303 301 301 299 297 296 295 294 294 293 291 290 290 289 288 286 284 283 281 280 278 276 274 274 273 272 270 268 266 263 261 259 257 255 253 252 251 251 251 249 247 245 245 245 244 244 244 244 244 244 243 243 243
314 313 312 312 312 311 309 308 307 306 304 302 301 300 298 296 296 295 295 294 292 292 292 291 290 287 285 283 282 280 278 276 274 273 273 272 271 270 268 266 263 260 259 257 255 253 251 249 250 250 249 247 246 245 243 242 242 243 243 243 243 243 243
315 313 312 313 312 311 310 309 308 307 306 303 301 300 299 297 296 296 296 295 294 294 294 293 291 289 286 284 282 281 279 277 275 273 272 271 271 270 270 268 265 263 261 259 256 254 252 251 249 249 250 249 248 246 244 241 241 242 242 242 242 242 243
315 313 312 313 313 312 311 310 309 308 307 304 302 301 299 297 297 297 296 295 295 296 296 295 293 291 289 287 284 282 280 278 276 274 272 272 271 270 270 269 267 265 263 260 258 256 255 253 251 249 249 249 249 248 245 242 240 241 241 240 240 241 241
315 313 312 313 313 312 312 311 310 309 307 305 303 301 300 298 297 298 297 296 296 297 298 298 296 294 292 290 286 283 279 277 276 275 273 272 271 270 270 269 268 266 264 262 260 257 256 254 253 251 249 249 249 248 246 243 241 240 240 240 240 240 240
316 314 313 313 314 313 313 312 311 309 308 306 304 302 300 299 299 299 298 297 297 298 300 300 299 297 295 291 288 284 279 277 276 275 273 271 271 270 269 269 267 266 264 262 260 258 256 255 254 252 250 249 249 248 247 244 241 239 238 239 240 240 240
316 315 314 314 314 315 314 313 311 310 308 307 305 303 301 300 300 299 298 297 298 300 302 301 300 298 295 293 290 286 282 279 278 277 274 272 271 270 269 268 267 265 264 262 261 259 257 255 254 253 252 251 250 249 247 245 242 239 237 237 238 240 240
317 315 314 314 315 315 315 313 312 311 309 307 305 303 302 302 301 300 299 298 299 301 301 300 299 298 297 296 294 291 287 283 280 279 277 274 272 271 269 268 267 266 264 262 261 260 258 256 254 253 253 252 251 250 248 246 244 241 238 236 237 239 241
317 316 315 315 315 316 315 314 313 312 310 308 305 304 303 303 302 302 300 299 299 300 299 299 299 299 298 298 296 293 289 284 280 279 278 276 274 271 270 269 268 267 265 263 261 260 259 257 255 254 253 252 252 251 249 247 245 242 239 237 236 237 239
317 316 315 315 316 316 316 315 314 312 311 308 306 305 305 305 304 304 301 300 299 299 298 298 298 298 297 296 295 293 290 286 282 278 277 276 274 272 270 268 267 267 266 264 263 261 259 257 256 254 253 252 252 251 250 248 245 242 240 237 236 236 237
318 317 316 316 317 317 316 316 315 313 311 309 307 306 306 306 306 305 302 301 301 300 299 298 297 296 294 293 292 290 289 287 284 281 278 276 275 273 270 268 266 266 266 265 263 262 260 258 257 255 254 253 252 252 251 249 247 243 240 238 237 236 236
318 317 317 317 318 318 317 316 316 314 312 311 309 308 307 307 307 307 304 303 302 300 297 296 295 292 290 289 288 286 285 283 282 281 278 276 274 272 270 268 266 265 266 265 264 263 261 259 258 256 255 254 253 252 251 250 248 245 242 239 238 237 236
319 318 318 318 318 318 318 317 316 315 314 312 310 309 309 309 310 308 305 302 300 298 297 297 296 294 292 291 289 287 285 282 281 280 279 277 275 273 271 269 267 265 265 265 265 263 262 260 258 257 255 254 253 252 250 249 248 246 244 241 239 238 237
320 319 319 319 319 319 318 318 317 316 315 313 312 312 311 311 311 309 305 303 303 303 303 304 304 303 301 299 297 294 291 288 287 285 283 281 278 276 273 271 269 267 265 264 264 264 262 260 259 257 256 254 253 252 250 249 248 247 245 243 241 238 237
321 320 320 320 320 320 320 319 318 317 316 315 313 313 311 311 312 311 308 308 309 309 308 309 308 307 306 304 302 300 297 294 292 289 287 284 282 279 276 273 271 269 267 266 265 264 263 261 259 257 255 254 252 251 250 249 248 247 246 244 242 239 236
322 320 320 321 321 321 320 320 319 318 317 316 315 314 313 313 314 314 312 311 312 310 309 309 309 308 307 305 303 301 299 296 293 290 287 285 283 281 278 275 272 270 269 268 266 265 263 261 260 258 255 254 252 251 249 248 248 247 245 244 242 240 237
324 322 321 322 322 322 321 321 320 319 318 317 317 316 315 315 316 315 313 311 311 309 309 308 308 308 307 305 303 301 299 296 293 290 287 285 283 281 279 277 274 271 270 269 268 266 264 262 260 258 256 254 252 250 249 247 246 245 244 243 242 240 237
326 324 323 322 323 323 323 322 321 320 319 319 318 317 316 316 317 316 314 312 311 309 308 308 308 307 306 304 303 301 299 297 294 291 289 286 283 281 279 278 276 273 271 270 269 267 265 262 260 258 256 254 252 249 248 246 245 244 243 242 241 239 237
327 326 324 323 323 323 324 323 322 321 320 319 319 318 317 316 316 315 314 313 311 310 309 308 308 307 305 303 301 299 297 296 294 291 289 286 284 281 279 278 276 275 273 271 270 268 266 263 261 259 256 254 252 249 247 246 244 243 242 241 239 238 236
328 327 326 325 324 323 323 323 322 321 320 319 318 317 316 315 314 314 313 312 310 309 308 307 307 306 304 303 301 299 296 294 292 289 287 285 283 281 279 277 276 275 274 272 271 269 266 264 261 259 257 254 252 249 247 246 244 242 241 240 239 237 235